This demonstration page uses our WeatherBlox Daily Observations layout. Learn more.

Left ArrowRight Arrow

39.92423, -83.80882

Hourly Observations for November 19, 2020

Temp ( °F °C ) Dew Point ( °F °C ) Humidity (%) Winds ( mph kmh ) Pressure ( in mb ) Visibility ( mi km ) Precip ( " mm )
12:56 am 00:56 Clear 37 2.8 23 -5 57 57 S 12 19 30.39 1029 10 16 N/A
1:56 am 01:56 Clear 38 3.3 23 -5 55 55 S 8 13 30.39 1029 10 16 N/A
2:56 am 02:56 Clear 40 4.4 22 -5.6 49 49 S 10 17 30.37 1028 10 16 N/A
3:56 am 03:56 Clear 40 4.4 22 -5.6 49 49 S 12 19 30.36 1028 10 16 N/A
4:56 am 04:56 Clear 40 4.4 22 -5.6 49 49 SSW 12 19 30.35 1028 10 16 N/A
5:56 am 05:56 Clear 41 5 22 -5.6 47 47 SSW 12 19 30.35 1028 10 16 N/A
6:56 am 06:56 Clear 41 5 21 -6.1 45 45 SSW 13 20 30.35 1028 10 16 N/A
7:56 am 07:56 Sunny 42 5.6 21 -6.1 43 43 SSW 14 22 30.34 1028 10 16 N/A
8:56 am 08:56 Sunny 48 8.9 22 -5.6 36 36 SSW 18 30 30.33 1027 10 16 N/A
9:56 am 09:56 Sunny 53 11.7 22 -5.6 30 30 SW 21 33 30.32 1027 10 16 N/A
10:56 am 10:56 Sunny 55 12.8 24 -4.4 30 30 SSW 21 33 30.32 1027 10 16 N/A
11:56 am 11:56 Sunny 60 15.6 26 -3.3 27 27 SW 18 30 30.30 1026 10 16 N/A
12:56 pm 12:56 Sunny 60 15.6 26 -3.3 27 27 SSW 23 37 30.26 1025 10 16 N/A
1:56 pm 13:56 Sunny 63 17.2 29 -1.7 28 28 SSW 17 28 30.24 1024 10 16 N/A
2:56 pm 14:56 Sunny 63 17.2 28 -2.2 27 27 SSW 16 26 30.23 1024 10 16 N/A
3:56 pm 15:56 Sunny 62 16.7 29 -1.7 29 29 SSW 13 20 30.23 1024 10 16 N/A
4:56 pm 16:56 Sunny 60 15.6 29 -1.7 31 31 SSW 10 17 30.22 1023 10 16 N/A
5:56 pm 17:56 Clear 58 14.4 30 -1.1 35 35 S 14 22 30.22 1023 10 16 N/A
6:56 pm 18:56 Clear 58 14.4 30 -1.1 35 35 S 15 24 30.21 1023 10 16 N/A
7:56 pm 19:56 Clear 58 14.4 29 -1.7 33 33 SSW 14 22 30.22 1023 10 16 N/A
8:56 pm 20:56 Clear 57 13.9 29 -1.7 34 34 SSW 13 20 30.22 1024 10 16 N/A
9:56 pm 21:56 Clear 57 13.9 29 -1.7 34 34 SW 14 22 30.24 1024 10 16 N/A
10:56 pm 22:56 Clear 56 13.3 28 -2.2 34 34 SW 18 30 30.24 1024 10 16 N/A
11:56 pm 23:56 Clear 55 12.8 28 -2.2 35 35 SSW 15 24 30.23 1024 10 16 N/A

Powered by AerisWeather